This demonstration page uses our WeatherBlox Daily Observations layout. Learn more.

Left ArrowRight Arrow

Hourly Observations for December 16, 2015

Temp ( °F °C ) Dew Point ( °F °C ) Humidity (%) Winds ( mph kmh ) Pressure ( in mb ) Visibility ( mi km ) Precip ( " mm )
1:22 am 01:22 Cloudy 37 3 32 0 81 81 S 8 13 29.44 997 10 16 0.00 0.00
2:58 am 02:58 Cloudy 35 1.9 31 -0.8 83 83 S 17 28 29.43 997 10 16 0.00 0.00
3:29 am 03:29 Cloudy 36 2 30 -1 81 81 S 15 24 29.44 997 10 16 0.00 0.00
3:58 am 03:58 Cloudy 35 1.5 31 -0.6 86 86 S 15 24 29.42 996 10 16 0.00 0.00
4:58 am 04:58 Cloudy 37 2.6 33 0.5 86 86 WSW 18 30 29.43 997 10 16 0.00 0.00
5:36 am 05:36 Cloudy 36 2 30 -1 81 81 W 16 26 29.50 999 10 16 0.00 0.00
5:58 am 05:58 Cloudy 35 1.4 29 -1.5 81 81 WSW 20 31 29.48 998 10 16 0.00 0.00
6:11 am 06:11 Cloudy with Light Wintry Mix 34 1 28 -2 81 81 WSW 18 30 29.53 1000 10 16 0.00 0.00
6:16 am 06:16 Cloudy 34 1 28 -2 81 81 W 16 26 29.53 1000 10 16 0.00 0.00
6:58 am 06:58 Cloudy 33 0.7 27 -2.9 77 77 W 20 31 29.54 1000 10 16 0.00 0.03
7:58 am 07:58 Cloudy 32 0.2 26 -3.4 77 77 W 20 31 29.58 1002 10 16 0.00 0.00
8:18 am 08:18 Cloudy 32 0 25 -4 75 75 W 18 30 29.62 1003 10 16 0.00 0.00
8:58 am 08:58 Cloudy 31 -0.5 24 -4.7 74 74 W 20 31 29.63 1004 10 16 0.00 0.00
9:58 am 09:58 Cloudy 30 -0.9 22 -5.6 71 71 W 17 28 29.67 1005 10 16 0.00 0.00
10:58 am 10:58 Cloudy 31 -0.5 22 -5.6 69 69 W 17 28 29.69 1006 10 16 0.00 0.00
11:58 am 11:58 Cloudy 31 -0.5 21 -5.9 67 67 W 17 28 29.71 1006 10 16 0.00 0.00
12:58 pm 12:58 Cloudy 32 -0.1 21 -6.1 64 64 W 17 28 29.72 1006 10 16 0.00 0.00
1:58 pm 13:58 Cloudy 33 0.3 21 -5.9 63 63 W 17 28 29.75 1007 10 16 0.00 0.00
2:58 pm 14:58 Cloudy 33 0.5 21 -6 62 62 W 18 30 29.76 1008 10 16 0.00 0.00
3:58 pm 15:58 Cloudy 31 -0.3 21 -6.2 65 65 WNW 18 30 29.81 1009 10 16 0.00 0.00
4:58 pm 16:58 Cloudy 32 -0.1 22 -5.8 66 66 WNW 21 33 29.84 1010 10 16 0.00 0.00
5:58 pm 17:58 Cloudy 32 0 21 -5.9 65 65 WNW 15 24 29.86 1011 10 16 0.00 0.00
6:58 pm 18:58 Cloudy 32 0.2 22 -5.4 66 66 W 6 9 29.88 1012 10 16 0.00 0.00
7:58 pm 19:58 Cloudy 33 0.3 22 -5.4 66 66 WNW 16 26 29.90 1013 10 16 0.00 0.00
8:58 pm 20:58 Cloudy 32 0 22 -5.7 66 66 WNW 15 24 29.91 1013 10 16 0.00 0.00
9:58 pm 21:58 Cloudy 32 0 23 -5.2 68 68 WNW 15 24 29.93 1014 10 16 0.00 0.00
10:58 pm 22:58 Cloudy 31 -0.4 23 -5 71 71 NW 16 26 29.95 1014 10 16 0.00 0.00
11:58 pm 23:58 Cloudy 31 -0.7 21 -5.9 68 68 NW 15 24 29.97 1015 10 16 0.00 0.00

Powered by AerisWeather